Location: Aufkirchen
(47.9603°N, 11.3653°E)
Time: 11:47:06
(UTC+01:00)

Tiros 1 - Pass Details

Date: 28 November 2020
Orbit: 630 x 663 km, 48.4° (Epoch: 21 January)

Event Time Altitude Azimuth Distance (km) Brightness Sun altitude
Rises 22:33:57 0° 279° (W) 2,970 - -58.1°
Reaches altitude 10° 22:37:29 10° 253° (WSW) 2,046 - -58.5°
Maximum altitude 22:39:38 13° 225° (SW) 1,843 - -58.7°
Drops below altitude 10° 22:41:45 10° 198° (SSW) 2,030 - -58.9°
Sets 22:45:15 0° 171° (S) 2,926 - -59.3°
